Regional Weather Roundup
Issued by NWS

Home | Current Version | Previous Version | Graphics & Text | Print | Product List | Glossary On
Versions: 1 2 3 4 5 6 7 8 9 10 11 12 13 14 15 16 17 18 19 20 21 22 23 24 25 26 27 28 29 30 31 32 33 34 35 36 37 38 39 40 41 42 43 44 45 46 47 48 49 50
000
ASUS43 KDMX 272301
RWRIA

WEATHER ROUNDUP FOR IOWA
NATIONAL WEATHER SERVICE DES MOINES IA
600 PM CDT MON MAR 27 2017

NOTE: "FAIR" INDICATES FEW OR NO CLOUDS BELOW 12,000 FEET WITH NO
SIGNIFICANT WEATHER AND/OR OBSTRUCTIONS TO VISIBILITY.

* - THESE STATIONS ARE NOT NWS STATIONS...THUS NOT UNDER NWS
QUALITY CONTROL.  THEY ALSO DO NOT REPORT WEATHER SUCH
AS PRECIPITATION OR FOG.

IAZ001>003-012>014-020>022-031>034-043>046-280000-
   NORTHWEST IOWA

CITY           SKY/WX    TMP DP  RH WIND       PRES   REMARKS
CARROLL *      CLOUDY    50  41  71 N10       29.95R
CHEROKEE *     CLOUDY    48  40  73 NE7       29.96S
DENISON *      CLOUDY    48  39  71 N8        29.97R
LE MARS *      MOSUNNY   54  41  62 NE6       29.96S
ORANGE CITY *  SUNNY     52  41  66 CALM      29.95S
SHELDON *      PTSUNNY   50  39  66 SE7       29.94S
SIOUX CITY     SUNNY     57  40  52 VRB3      29.94R
SPENCER        CLOUDY    50  39  66 NE6       29.95F
STORM LAKE *     N/A     48  39  71 NE7       29.95S
$$

IAZ055>058-069>071-079>083-090>094-280000-
   SOUTHWEST IOWA

CITY           SKY/WX    TMP DP  RH WIND       PRES   REMARKS
ATLANTIC *     CLOUDY    50  41  71 N9        29.95R
AUDUBON *      CLOUDY    50  41  71 N6        29.95S
CLARINDA *     CLOUDY    50  45  81 NE7       29.97S
COUNCIL BLFS * CLOUDY    50  43  76 N5        29.95S
CRESTON *      CLOUDY    48  45  87 NE9       29.95R
HARLAN  *      CLOUDY    50  43  76 NE8       29.98S
LAMONI         CLOUDY    50  44  80 NE6       29.92R
RED OAK *      CLOUDY    52  41  66 N5        29.96R
SHENANDOAH *   CLOUDY    50  43  76 NW6       29.96S
$$

IAZ047>049-059>061-072>074-084-280000-
   CENTRAL IOWA

CITY           SKY/WX    TMP DP  RH WIND       PRES   REMARKS
AMES           CLOUDY    49  42  77 NW8       29.93F
ANKENY *       CLOUDY    50  43  76 NE7       29.94S
BOONE *        CLOUDY    46  43  87 N10       29.93S
CHARITON *     CLOUDY    48  45  87 N8G14     29.91F
DES MOINES     CLOUDY    51  42  71 N7        29.93S
GRINNELL*      CLOUDY    48  44  84 N9        29.94S
MARSHALLTOWN   CLOUDY    49  43  80 NW6       29.92F
NEWTON *       CLOUDY    48  43  81 N8        29.91F
PELLA *        CLOUDY    49  44  81 N6        29.93F
PERRY *        CLOUDY    48  42  80 NW8       29.94S
$$

IAZ004>006-015-016-023>025-035-036-280000-
   NORTH CENTRAL IOWA

CITY           SKY/WX    TMP DP  RH WIND       PRES   REMARKS
ALGONA *       CLOUDY    50  43  76 NE12      29.94F
CLARION *      CLOUDY    48  45  87 N7        29.94F
ESTHERVILLE    CLOUDY    50  41  71 N7        29.94F
FORT DODGE *   CLOUDY    48  39  71 NE7       29.95S
MASON CITY     CLOUDY    47  40  76 NE9       29.95F
FOREST CITY *  CLOUDY    46  41  81 NE7       29.95S
WEBSTER CITY * CLOUDY    48  41  76 N9        29.92F
IOWA FALLS *   CLOUDY    48  41  77 N10       29.95S
$$

IAZ007>011-017>019-026>030-037>042-050>054-066-280000-
   NORTHEAST IOWA

CITY           SKY/WX    TMP DP  RH WIND       PRES   REMARKS
CEDAR RAPIDS   CLOUDY    50  46  86 N6        29.91S
CHARLES CITY * CLOUDY    48  45  87 VRB5      29.95R
CLINTON *      CLOUDY    50  46  86 N10       29.92R
DECORAH *      CLOUDY    46  43  87 NE5       29.93S
DUBUQUE        CLOUDY    48  44  86 NE7       29.92R
MONTICELLO *   CLOUDY    50  45  81 N8        29.91F
OELWEIN *      CLOUDY    48  45  87 N9        29.93S
WATERLOO       CLOUDY    50  40  68 N7        29.93S
$$

IAZ064-065-067-068-078-280000-
   EAST CENTRAL IOWA

CITY           SKY/WX    TMP DP  RH WIND       PRES   REMARKS
DAVENPORT      CLOUDY    51  46  83 N10       29.91S
IOWA CITY      CLOUDY    53  45  74 N6        29.93S
MUSCATINE *    CLOUDY    52  46  82 N10       29.92S
QUAD CITIES    CLOUDY    53  45  74 N8        29.89S
$$

IAZ062-063-075>077-085>089-095>099-280000-
   SOUTHEAST IOWA

CITY           SKY/WX    TMP DP  RH WIND       PRES   REMARKS
BURLINGTON     CLOUDY    52  49  89 N9        29.89S
FAIRFIELD *    CLOUDY    52  46  82 N8        29.90F HAZE
FORT MADISON * CLOUDY    52  50  93 N6        29.91S
KEOKUK *       CLOUDY    52  48  87 N12       29.89S
OSKALOOSA *    CLOUDY    48  45  87 N9        29.92S
CENTERVILLE *  CLOUDY    48  46  93 N10       29.92F
OTTUMWA        CLOUDY    50  46  86 N10       29.92S
WASHINGTON *   CLOUDY    52  48  87 N10       29.92F
$$

ABBREVIATIONS USED IN REMARKS
   TC - TEMPERATURES IN CELSIUS
  WCI - WIND CHILL INDEX
   HX - HEAT INDEX
  VSB - VISIBILITY
$$





USA.gov is the U.S. government's official web portal to all federal, state and local government web resources and services.